M7VJL-13 Weather Reports


time (UTC)temp
C
wind
direction
speed
KPH
gust
KPH
rain 1hr
cm
rain 24hr
cm
rain mn
cm
humidity
%
barometer
mb
20260506044503 4 304 3.2 14.5 0.00 0.00 0.00 90 1013.0
20260506043002 4 305 3.2 11.3 0.00 0.00 0.00 89 1012.9
20260506041509 5 279 1.6 9.7 0.00 0.00 0.00 89 1013.0
20260506040006 5 355 3.2 11.3 0.00 0.00 0.00 89 1013.0
20260506034505 5 271 3.2 12.9 0.00 0.00 0.00 89 1013.1
20260506033004 5 281 3.2 16.1 0.00 0.00 0.00 89 1013.2
20260506031506 5 281 3.2 11.3 0.00 0.00 0.00 89 1013.2
20260506030019 5 275 3.2 11.3 0.00 0.00 0.00 88 1013.3
20260506024514 5 277 1.6 11.3 0.00 0.00 0.00 88 1013.3
20260506023008 5 300 3.2 9.7 0.00 0.00 0.00 88 1013.4
20260506021508 6 292 1.6 14.5 0.00 0.00 0.00 87 1013.5
20260506020010 6 284 1.6 12.9 0.00 0.00 0.00 87 1013.6
20260506014517 6 265 1.6 11.3 0.00 0.00 0.00 86 1013.7
20260506013007 6 336 3.2 12.9 0.00 0.00 0.00 85 1013.7
20260506011510 7 326 3.2 11.3 0.00 0.00 0.00 84 1013.7
20260506004512 7 287 1.6 9.7 0.00 0.00 0.00 84 1013.8
20260506003015 7 292 3.2 16.1 0.00 0.00 0.00 84 1013.9
20260506001511 7 306 1.6 8.0 0.00 0.00 0.00 84 1013.9
20260506000011 7 311 3.2 14.5 0.00 0.00 0.00 83 1014.0
20260505234519 7 306 0.0 6.4 0.00 0.00 0.00 82 1014.0
20260505233019 7 286 0.0 12.9 0.00 0.00 0.00 81 1014.2
20260505231514 8 288 1.6 12.9 0.00 0.00 0.00 81 1014.2
20260505230032 8 346 1.6 8.0 0.00 0.00 0.00 81 1014.2
20260505224514 8 44 0.0 9.7 0.00 0.00 0.00 81 1014.1
20260505223017 8 254 1.6 14.5 0.00 0.00 0.00 80 1014.1
20260505221518 8 74 3.2 8.0 0.00 0.00 0.00 82 1014.2
20260505220024 8 17 0.0 8.0 0.00 0.00 0.00 82 1014.2
20260505214516 8 168 3.2 14.5 0.00 0.00 0.00 82 1014.2
20260505213022 8 126 0.0 8.0 0.00 0.00 0.00 81 1014.2
20260505210017 9 280 1.6 6.4 0.00 0.00 0.00 79 1014.3
20260505210004 9 280 0.0 6.4 0.00 0.00 0.00 79 1014.3
20260505204505 9 111 1.6 9.7 0.00 0.00 0.00 77 1014.2
20260505203018 9 188 3.2 9.7 0.00 0.00 0.00 78 1014.1
20260505201515 9 333 1.6 12.9 0.00 0.00 0.00 81 1014.0
20260505200003 10 94 1.6 12.9 0.00 0.00 0.00 81 1013.9
20260505194504 10 31 3.2 12.9 0.00 0.00 0.00 81 1013.7
20260505193005 10 86 1.6 14.5 0.00 0.00 0.00 80 1013.6
20260505191510 10 55 1.6 8.0 0.00 0.00 0.00 80 1013.4
20260505190014 10 35 1.6 8.0 0.00 0.00 0.00 79 1013.3
20260505184503 11 257 3.2 12.9 0.00 0.00 0.00 79 1013.0
20260505183004 11 105 1.6 11.3 0.00 0.00 0.00 79 1012.8
20260505181507 11 229 3.2 12.9 0.00 0.00 0.00 79 1012.8
20260505180021 11 113 3.2 12.9 0.00 0.00 0.00 80 1012.7
20260505174513 11 123 1.6 14.5 0.00 0.00 0.00 79 1012.7
20260505173004 12 76 4.8 11.3 0.00 0.00 0.00 77 1012.7
20260505171505 12 150 1.6 11.3 0.00 0.00 0.00 77 1012.7
20260505170010 12 67 1.6 9.7 0.00 0.00 0.00 76 1012.7
20260505164509 13 143 1.6 11.3 0.00 0.00 0.00 75 1012.5
20260505163017 13 341 1.6 8.0 0.00 0.00 0.00 75 1012.6
20260505161522 13 194 1.6 14.5 0.00 0.00 0.00 75 1012.3
20260505153014 13 186 1.6 9.7 0.00 0.00 0.00 74 1012.3
20260505151519 13 316 3.2 12.9 0.00 0.00 0.00 73 1012.3
20260505124522 15 355 3.2 16.1 0.00 0.00 0.00 65 1012.4
20260505123031 16 317 8.0 17.7 0.00 0.00 0.00 60 1012.3
20260505121514 16 317 8.0 17.7 0.00 0.00 0.00 63 1012.3
20260505120022 16 290 4.8 19.3 0.00 0.00 0.00 64 1012.4
20260505114519 16 326 3.2 11.3 0.00 0.00 0.00 64 1012.5
20260505113005 15 298 1.6 16.1 0.00 0.00 0.00 69 1012.6
20260505111516 14 360 3.2 12.9 0.00 0.00 0.00 70 1012.8
20260505101522 14 304 3.2 11.3 0.00 0.00 0.00 75 1013.1
20260505100032 13 294 1.6 11.3 0.00 0.00 0.00 75 1013.2
20260505094520 13 286 4.8 12.9 0.00 0.00 0.00 76 1013.1
20260505093004 12 252 1.6 11.3 0.00 0.00 0.00 79 1013.2
20260505091502 12 355 1.6 6.4 0.00 0.00 0.00 79 1013.3
20260505090008 11 288 3.2 12.9 0.00 0.00 0.00 80 1013.4
20260505084512 11 317 0.0 11.3 0.00 0.00 0.00 82 1013.4
20260505083023 11 286 1.6 9.7 0.00 0.00 0.00 85 1013.4
20260505074511 9 289 3.2 6.4 0.00 0.00 0.00 94 1013.4